Regional Weather Roundup
Issued by NWS

Home | Current Version | Previous Version | Text Only | Print | Product List | Glossary On
Versions: 1 2 3 4 5 6 7 8 9 10 11 12 13 14 15 16 17 18 19 20 21 22 23 24 25 26 27 28 29 30 31 32 33 34 35 36 37 38 39 40 41 42 43 44 45 46 47 48 49 50
000
ASUS43 KLSX 081610
RWRMO

WEATHER SUMMARY FOR MISSOURI
NATIONAL WEATHER SERVICE SPRINGFIELD MO
1000 AM CST THU DEC 08 2016

NOTE: "FAIR" INDICATES FEW OR NO CLOUDS BELOW 12,000 FEET WITH NO
       SIGNIFICANT WEATHER AND/OR OBSTRUCTIONS TO VISIBILITY.
       CURRENT SKY AND/OR WEATHER CONDITIONS ARE NOT AVAILABLE FOR
       CHILLICOTHE AND FARMINGTON.

MOZ001>031-035>038-043-044-053-054-081700-
...NORTHERN AND WESTERN MISSOURI...

CITY           SKY/WX    TMP DP  RH WIND       PRES   REMARKS
KANSAS CTY INT SUNNY     18   6  59 NW16      30.62R WCI   3
KANSAS C DTWN  SUNNY     19   8  62 NW13G20   30.64R WCI   6
LEE`S SUMMIT   SUNNY     18   8  65 NW14      30.61R WCI   4
ST JOSEPH      SUNNY     18   6  59 NW21G26   30.63R WCI   1
CHILLICOTHE      N/A     19   8  62 NW13G23   30.60R WCI   6
KIRKSVILLE     PTSUNNY   19   9  65 W16G25    30.53R WCI   4

$$
MOZ066>068-077>081-088>096-101>105-081700-
...SOUTHWEST MISSOURI...

CITY           SKY/WX    TMP DP  RH WIND       PRES   REMARKS
SPRINGFIELD    SUNNY     20  10  65 NW13      30.59R WCI   7
JOPLIN         SUNNY     21  11  65 NW14      30.67R WCI   8
BRANSON        PTSUNNY   23   9  54 NW10      30.58R WCI  12

$$
MOZ032>034-039>042-045>050-055>058-069>072-081700-
...CENTRAL MISSOURI...

CITY           SKY/WX    TMP DP  RH WIND       PRES   REMARKS
COLUMBIA       SUNNY     21   9  59 W15       30.55R WCI   8
JEFFERSON CITY SUNNY     22  10  60 NW13      30.59R WCI  10
ROLLA          SUNNY     21  11  65 W18       30.52R WCI   6
SEDALIA        SUNNY     21  11  65 NW15      30.60R WCI   8
WHITEMAN AFB   MOSUNNY   20  10  64 NW14      30.60R WCI   7
WARRENSBURG    SUNNY     21  10  63 W13       30.63R WCI   9
OSAGE BEACH    SUNNY     23  12  62 W10       30.60  WCI  12

$$
MOZ051-052-059>065-081700-
...EAST CENTRAL MISSOURI...

CITY           SKY/WX    TMP DP  RH WIND       PRES   REMARKS
ST LOUIS INTL  MOSUNNY   25  10  53 W16G25    30.51R WCI  12
SPIRIT OF STL  MOSUNNY   25  12  58 W16       30.53R WCI  12
ST CHARLES     SUNNY     24  12  60 W20       30.52R WCI  10

$$
MOZ072>076-082>087-097>100-106>115-081700-
...SOUTH CENTRAL AND SOUTHEAST MISSOURI...

CITY           SKY/WX    TMP DP  RH WIND       PRES   REMARKS
CAPE GIRARDEAU SUNNY     28  12  51 W13       30.53R WCI  17
FARMINGTON     SUNNY     24  12  60 W10       30.51R WCI  14
POPLAR BLUFF   CLOUDY    30  12  47 NW12      30.55R WCI  20
WEST PLAINS    CLOUDY    25  10  53 NW15      30.55R WCI  13

$$




USA.gov is the U.S. government's official web portal to all federal, state and local government web resources and services.